Welcome to the New NWS' Forecast!
Most changes are behind the scenes, but click here for differences you might notice.
Latest weather observations around

Emigrant Gap, Blue Canyon Nyack Airport (KBLU)

Using International System of Units (Switch to English Units)
Date/ Time (PDT) Wind (kph) Vis. (km) Weather Sky Cond. Temp (°C) Rel. Humidity Wind Chill (°C) Heat Index (°C) Pressure Precip. (cm)
Air Dwpt 6 hour Altimeter (hPa) Sea level (hPa) 1 hr 3 hr 6 hr
Max Min
Aug 14 00:52 Calm 16.09 Clear CLR 21 1     27%     1021 1010      
Aug 13 23:52 ENE 5 16.09 Clear CLR 21 3     31%     1021.3 1010.1      
Aug 13 22:52 E 5 16.09 Clear CLR 19 3     34%     1021.3 1010.9      
Aug 13 20:52 Calm 16.09 Clear CLR 20 3     32%     1021.3 1011.2      
Aug 13 19:52 Calm 16.09 Clear CLR 22 3     29%   21 1021.3 1010.8      
Aug 13 17:52 9 16.09 Clear CLR 26 0     19%   25 1021.3 1010.4      
Aug 13 16:52 W 13 16.09 Clear CLR 27 1     19%   26 1021.7 1010.5      
Aug 13 15:52 W 13 16.09 Clear CLR 27 3     21%   27 1022 1010.6      
Aug 13 14:52 SSW 17 16.09 Clear CLR 27 0     17%   26 1022.4 1011.2      
Aug 13 13:52 11 16.09 Clear CLR 27 2     20%   26 1022.7 1011.5      
Aug 13 12:52 SW 13 16.09 Clear CLR 26 3     22%   25 1023 1011.7      
Aug 13 11:52 S 18 16.09 Clear CLR 26 -1     17%   25 1023.4 1012.2      
Aug 13 10:52 SSE 15 16.09 Clear CLR 25 1     20%   24   1012.6      
Aug 13 09:52 SSE 13 16.09 Clear CLR 24 -1     19%   23 1023 1013      
Aug 13 08:52 SE 8 16.09 Clear CLR 23 0     21%   22 1023 1012.5      
Aug 13 07:52 ESE 8 16.09 Clear CLR 22 -1     22%   20 1022.7 1012.3      
Aug 13 06:52 ESE 8 16.09 Clear CLR 21 -3     20%     1022.7 1011.9      
Aug 13 04:52 E 5 16.09 Clear CLR 20 -1     25%     1022.4 1011.2      
Aug 13 03:52 ESE 5 16.09 Clear CLR 21 1     26%     1022.4 1010.9      
Aug 12 22:52 Calm 16.09 Clear CLR 20 2     30%     1022.7 1012      
Aug 12 20:52 ESE 5 16.09 Clear CLR 21 1     27%     1022.4 1012      
Aug 12 19:52 S 8 16.09 Clear CLR 22 1     25%   21 1022 1011.7      
Aug 12 18:52 SW 8 16.09 Clear CLR 24 1     21%   23 1022 1011.2      
Aug 12 14:52 S 15 16.09 Clear CLR 27 0     17%   26   1011.1      
Aug 12 13:52 SW 15 16.09 Clear CLR 27 0     17%   26   1011.4      
Aug 12 11:52 S 15 16.09 Clear CLR 27 -4     13%   26 1023.4 1012.2      
Aug 12 10:52 SSE 9 16.09 Clear CLR 26 -3     15%   25   1012.3      
Notice The following observation data may not be complete
Aug 12 08:52 SE 11 16.09 Clear CLR   -2      %     1023.4 1012.7      
Aug 12 06:52 ESE 5 16.09 Clear CLR 21 1     26%     1023 1011.9      
Aug 12 05:52 ESE 8 16.09 Clear CLR 21 2     30%     1022.7 1011.3      
Notice The following observation data may not be complete
Aug 12 04:52 ESE 8 16.09 Clear CLR   2      %       1010.8      
Notice The following observation data may not be complete
Aug 12 03:52 ESE 5 16.09 Clear CLR   1      %     1022.4 1010.8      
Notice The following observation data may not be complete
Aug 12 02:52 SE 5 16.09 Clear CLR   2      %     1022.7 1010.6      
Notice The following observation data may not be complete
Aug 12 01:52 Calm 16.09 Clear CLR   2      %     1022.7 1011      
Aug 12 00:52 Calm 16.09 Clear CLR 21 3     32%     1022.7 1011.5      
Aug 11 23:52 Calm 16.09 Clear CLR 21 4     32%       1011.5      
Aug 11 22:52 Calm 16.09 Clear CLR 22 4     32%   21 1023 1011.7      
Aug 11 20:52 Calm 16.09 Clear CLR 22 4     32%   21   1012.7      
Aug 11 16:52 WNW 11 16.09 Clear CLR 28 -1     15%   27 1023.4 1011.8      
Aug 11 14:52 11 14.48 Clear CLR 28 3     20%   27 1024.4 1012.3      
Aug 11 13:52 WSW 13 12.87 Clear CLR 27 2     20%   26 1024.7 1012.7      
Aug 11 12:52 SSW 9 9.66 Haze CLR 27 2     20%   26 1025.1 1013.3      
Aug 11 10:52 S 13 16.09 Clear CLR 26 0     19%   25 1025.1 1013.8      
Aug 11 08:52 E 5 8.05 Haze CLR 24 3     25%   23 1024.7 1013.8      
Aug 11 07:52 Calm 9.66 Haze CLR 22 3     28%   21 1024.7 1013.5      
Aug 11 06:52 Calm 11.27 Clear CLR 21 2     29%     1024.4 1013      
Aug 11 05:52 E 5 11.27 Clear CLR 21 4     33%     1024.1 1012.5      
Aug 11 03:52 Calm 12.87 Clear CLR 21 3     31%     1023.7 1011.8      
Aug 11 02:52 Calm 12.87 Clear CLR 22 -1     22%   21 1023.7 1011.2      
Aug 11 00:52 NE 5 14.48 Clear CLR 22 1     24%   21 1024.4 1011.8      
Aug 10 23:52 NNW 8 12.87 Clear CLR 24 3     25%   23 1024.4 1012      
May 14 21:52 Calm 16.09 Clear CLR 11 8     86%     1017.6 1012.2      
May 14 10:52 11 16.09 Mostly Clear FEW055 16 1     37%     1018 1012.1      
May 13 09:52 Calm 16.09 Clear   12 4     57%     1018 1013.3      
May 12 18:52 8 16.09 Cloudy OVC090 12 3     56%     1015.2 1011.2      
May 11 21:52 11 16.09 Clear CLR 8 -4     42% 6   1013.2 1008.8      
May 11 17:52 NNE 17 16.09 Clear CLR 13 -7     24%     1012.9 1007.6      
May 11 15:52 NNE 17 16.09 Clear CLR 14 -8     21%     1012.9 1007.4      
Jun 12 01:33 SSE 5 2.01 Light Snow and Fog/Mist BKN003 OVC007 1 1     100% -1   1014.6   0    
Jun 12 01:18 SSW 5 4.02 Light Snow and Fog/Mist OVC004 1 1     100% -1   1014.6   0    
Jun 11 17:08 9 8.05 Fog/Mist SCT004 BKN013 OVC034 2 2     96% -1   1013.6   0    
Jun 11 15:52 W 11 4.02 Light Snow and Fog/Mist FEW010 BKN018 OVC049 2 1     92% -1   1013.9 1012.7 0    
Jun 11 13:02   16.09 Mostly Cloudy FEW022 SCT029 BKN050 6 0     67%     1012.5        
Jun 11 12:52 SSW 17 16.09 Clear   6 -1     64% 2   1012.5 1010.5      
Jun 11 09:59 8 16.09 Cloudy FEW019 BKN028 OVC035 4 1     76% 3            
Jun 11 09:42 S 15 16.09 Mostly Cloudy FEW020 BKN028 BKN034 4 1     79% 0   1011.5        
Jun 11 04:52 8 4.02 Fog/Mist OVC002 3 3     100% 1     1008.3      
Jun 11 02:52 S 9 1.21 Fog/Mist VV002 4 4     100% 2     1008.8      
Jun 11 00:43 S 11 2.01 Fog/Mist OVC002 4 4     100% 2   1012.9        
Jun 10 22:52 S 15 16.09 Cloudy OVC005 6 5     96% 3   1013.6 1010.2      
Jun 10 03:00 SSE 18 4.83 Fog/Mist BKN002 OVC009 7 7     100% 3   1014.2        
Jun 10 02:14 SSE 17 2.01 Fog/Mist OVC002 7 7     100% 4   1014.9        
Jun 09 21:27 S 15 2.82 Fog/Mist BKN002 BKN006 OVC016 8 8     97% 6   1015.6        
Jun 09 18:52 SSW 18 16.09 Cloudy SCT007 BKN010 OVC017 9 8     93% 7     1011.6      
Jun 09 13:52 SW 17 0.4 Clear   9 9     100% 6   1016.3 1012.8 0    
Jun 09 10:52 SSW 15 0.4 Fog VV002 8 8     100% 6   1015.9 1012.7     0
Jun 09 06:35 S 15 0.4 Fog VV002 8 8     100% 5   1016.3        
Jun 09 05:52 S 11 0.4 Fog VV001 8 8     100% 6   1016.3 1012.9      
Jun 09 03:52 S 9 0.4 Fog VV002 8 8     100% 6   1016.9 1013.9      
Jun 09 02:52 S 11 0.8 Fog VV002 8 8     100% 6   1017.3 1014.3      
Notice The following observation data may not be complete
Jun 09 02:08   2.41 Fog/Mist OVC002          %              
Jun 09 01:48 SSW 8 1.21 Fog/Mist VV002 8 8     100% 7   1017.6        
Jun 08 18:52 S 11 0.4 Fog VV002 9 9     100% 7   1019 1015.6      
Notice The following observation data may not be complete
Jun 08 17:42   2.01 Fog/Mist OVC002          %              
Jun 08 11:52   2.82 Light Rain and Fog/Mist SCT006 BKN010 OVC021 6 6     97%     1020 1016.7 0    
Notice The following observation data may not be complete
Jun 08 11:20   3.22 Rain and Fog/Mist FEW005 SCT012 OVC021          %         0    
Jun 07 23:52 SE 11 16.09 Clear CLR 11 4     63%       1010.2      
Jun 07 22:52 SE 11 16.09 Clear CLR 11 4     65%     1017.6 1011      
Jun 07 20:52 S 13 16.09 Clear CLR 14 3     49%     1017.3 1009.9      
Jun 05 21:52 Calm 16.09 Clear CLR 15 0     36%       1011.4